Wilmington, OH

10:55 AM EDT on August 24, 2016 (GMT -0400)
Airborne

Weather History for KILN - November, 2012

Change the Weather History Date:

Saturday, November 10, 2012

  Actual Average (KDAY) Record (KDAY)
Temperature  
Mean Temperature 58 °F 45 °F  
Max Temperature 70 °F 54 °F 71 °F (2002)
Min Temperature 46 °F 37 °F 18 °F (1991)
Degree Days  
Heating Degree Days 7 20  
Month to date heating degree days 179  
Since 1 July heating degree days 626  
Cooling Degree Days 0 0  
Month to date cooling degree days 0  
Year to date cooling degree days 891  
Growing Degree Days 8 (Base 50)    
Moisture  
Dew Point 39 °F    
Average Humidity 54    
Maximum Humidity 68    
Minimum Humidity 38    
Precipitation  
Precipitation 0.00 in 0.10 in 2.05 in (1985)
Month to date precipitation 1.05  
Year to date precipitation 35.59  
Snow  
Snow 0.00 in 0.00 in 0.20 in (1960)
Month to date snowfall 0.1  
Since 1 July snowfall 0.5  
Since 1 September snowfall 0.5  
Snow Depth -    
Sea Level Pressure  
Sea Level Pressure 30.19 in    
Wind  
Wind Speed 9 mph (SSW)    
Max Wind Speed 18 mph    
Max Gust Speed 25 mph    
Visibility 10 miles    
Events      
T = Trace of Precipitation, MM = Missing Value Source: NWS Daily Summary

Daily Weather History Graph

Daily Weather History Graph

Search for Another Location

Airport or City:

Trip Planner

Search our weather history database for the weather conditions in past years. The results will help you decide how hot, cold, wet, or windy it might be!

Date:

Astronomy

Nov. 10, 2012 Rise Set
Actual Time 7:14 AM EST 5:24 PM EST
Civil Twilight 6:45 AM EST 5:52 PM EST
Nautical Twilight 6:13 AM EST 6:24 PM EST
Astronomical Twilight 5:41 AM EST 6:56 PM EST
Moon 3:18 AM EST (11/10) 3:09 PM EST (11/10)
Length of Visible Light 11h 06m
Length of Day
10h 10m
Waning Crescent, 14% of the Moon is Illuminated
Nov 10
Waning Crescent
Nov 13
New
Nov 20
First Quarter
Nov 28
Full
Dec 6
Last Quarter

Hourly Weather History & Observations

Time (EST) Temp. Windchill Dew Point Humidity Pressure Visibility Wind Dir Wind Speed Gust Speed Precip Events Conditions
12:54 AM 48.0 °F - 35.1 °F 61% 30.17 in 10.0 mi SSW 6.9 mph - N/A   Scattered Clouds
1:54 AM 48.0 °F - 35.1 °F 61% 30.18 in 10.0 mi South 6.9 mph - N/A   Clear
2:54 AM 48.0 °F - 35.1 °F 61% 30.19 in 10.0 mi South 5.8 mph - N/A   Clear
3:54 AM 48.0 °F - 36.0 °F 63% 30.20 in 10.0 mi South 3.5 mph - N/A   Mostly Cloudy
4:54 AM 46.9 °F - 36.0 °F 66% 30.22 in 10.0 mi South 6.9 mph - N/A   Clear
5:54 AM 46.0 °F 41.4 °F 36.0 °F 68% 30.22 in 10.0 mi South 9.2 mph - N/A   Clear
6:54 AM 46.0 °F 41.9 °F 36.0 °F 68% 30.23 in 10.0 mi SSW 8.1 mph - N/A   Clear
7:54 AM 46.9 °F - 37.0 °F 68% 30.24 in 10.0 mi South 10.4 mph - N/A   Clear
8:54 AM 53.1 °F - 39.0 °F 59% 30.23 in 10.0 mi SSW 12.7 mph - N/A   Clear
9:54 AM 57.9 °F - 39.9 °F 51% 30.22 in 10.0 mi SSW 15.0 mph - N/A   Clear
10:54 AM 62.1 °F - 42.1 °F 48% 30.21 in 10.0 mi SSW 13.8 mph - N/A   Clear
11:54 AM 64.0 °F - 43.0 °F 46% 30.20 in 10.0 mi SW 16.1 mph - N/A   Scattered Clouds
12:54 PM 66.9 °F - 45.0 °F 45% 30.17 in 10.0 mi SW 17.3 mph - N/A   Clear
1:54 PM 70.0 °F - 44.1 °F 39% 30.15 in 10.0 mi SSW 18.4 mph 24.2 mph N/A   Clear
2:54 PM 70.0 °F - 43.0 °F 38% 30.14 in 10.0 mi South 16.1 mph 25.3 mph N/A   Clear
3:54 PM 69.1 °F - 43.0 °F 39% 30.13 in 10.0 mi South 16.1 mph 24.2 mph N/A   Clear
4:54 PM 66.0 °F - 42.1 °F 42% 30.16 in 10.0 mi SSW 11.5 mph - N/A   Clear
5:54 PM 60.1 °F - 41.0 °F 49% 30.19 in 10.0 mi South 6.9 mph - N/A   Clear
6:54 PM 57.9 °F - 41.0 °F 53% 30.21 in 10.0 mi South 9.2 mph - N/A   Clear
7:54 PM 57.0 °F - 42.1 °F 57% 30.20 in 10.0 mi South 9.2 mph - N/A   Clear
8:54 PM 57.0 °F - 39.9 °F 53% 30.19 in 10.0 mi South 9.2 mph - N/A   Clear
9:54 PM 55.0 °F - 39.0 °F 55% 30.21 in 10.0 mi South 8.1 mph - N/A   Clear
11:54 PM 53.1 °F - 37.9 °F 57% 30.20 in 10.0 mi South 8.1 mph - N/A   Clear